Abbotsford, British Columbia

7:53 PM PST on February 12, 2016 (GMT -0800)
Abbotsford

Weather History for CYXX - November, 2012

Change the Weather History Date:

Saturday, November 17, 2012

  Actual Average Record
Temperature  
Mean Temperature 45 °F -  
Max Temperature 49 °F 45 °F 56 °F (2015)
Min Temperature 41 °F 33 °F 23 °F (2014)
Degree Days  
Heating Degree Days 20    
Moisture  
Dew Point 43 °F    
Average Humidity 92    
Maximum Humidity 100    
Minimum Humidity 86    
Precipitation  
Precipitation 0.35 in 0.29 in - ()
Sea Level Pressure  
Sea Level Pressure 29.56 in    
Wind  
Wind Speed 5 mph ()    
Max Wind Speed 20 mph    
Max Gust Speed 26 mph    
Visibility 9.7 miles    
Events Rain , Snow    
Averages and records for this station are not official NWS values.
T = Trace of Precipitation, MM = Missing Value Source: Averaged Metar Reports

Daily Weather History Graph

Daily Weather History Graph

Search for Another Location

Airport or City:

Trip Planner

Search our weather history database for the weather conditions in past years. The results will help you decide how hot, cold, wet, or windy it might be!

Date:

Astronomy

Nov. 17, 2012 Rise Set
Actual Time 7:23 AM PST 4:25 PM PST
Civil Twilight 6:48 AM PST 5:00 PM PST
Nautical Twilight 6:09 AM PST 5:39 PM PST
Astronomical Twilight 5:31 AM PST 6:16 PM PST
Moon 11:11 AM PST (11/17) 8:43 PM PST (11/17)
Length of Visible Light 10h 12m
Length of Day
9h 02m
Waxing Crescent, 21% of the Moon is Illuminated
Nov 17
Waxing Crescent
Nov 20
First Quarter
Nov 28
Full
Dec 6
Last Quarter
Dec 13
New

Hourly Weather History & Observations

Time (PST) Temp. Windchill Dew Point Humidity Pressure Visibility Wind Dir Wind Speed Gust Speed Precip Events Conditions
12:00 AM 44.6 °F 43.1 °F 42.8 °F 93% 29.70 in 15.0 mi NNE 3.5 mph - N/A   Overcast
1:00 AM 44.6 °F 40.2 °F 42.8 °F 93% 29.67 in 15.0 mi NE 8.1 mph - N/A   Overcast
2:00 AM 44.6 °F 42.2 °F 42.8 °F 93% 29.64 in 15.0 mi NE 4.6 mph - N/A   Overcast
3:00 AM 46.4 °F 44.3 °F 42.8 °F 87% 29.62 in 15.0 mi NNE 4.6 mph - N/A   Overcast
4:00 AM 45 °F - 42 °F 87% 29.59 in 15 mi Calm Calm - -   Partly Cloudy
4:00 AM 44.6 °F - 42.8 °F 93% 29.59 in 15.0 mi NE 2.3 mph - N/A   Overcast
4:27 AM 46.4 °F - 42.8 °F 87% 29.59 in 10.0 mi Calm Calm - N/A Rain Light Rain Showers
5:00 AM 44.6 °F 40.7 °F 42.8 °F 93% 29.56 in 10.0 mi NE 6.9 mph - N/A Rain Light Rain Showers
6:00 AM 44.6 °F 42.2 °F 44.6 °F 100% 29.54 in 15.0 mi NNE 4.6 mph - N/A Rain Light Rain Showers
7:00 AM 44.6 °F 42.2 °F 44.6 °F 100% 29.52 in 15.0 mi NNE 4.6 mph - N/A Rain Light Rain Showers
8:00 AM 44.6 °F - 44.6 °F 100% 29.52 in 30.0 mi Variable 2.3 mph - N/A   Overcast
9:00 AM 46.4 °F 41.1 °F 42.8 °F 87% 29.47 in 30.0 mi East 11.5 mph - N/A   Mostly Cloudy
10:00 AM 47 °F - 44 °F 86% 29.46 in 28 mi Calm Calm - -   Partly Cloudy
10:00 AM 46.4 °F 44.3 °F 44.6 °F 93% 29.46 in 30.0 mi North 4.6 mph - N/A   Overcast
11:00 AM 48.2 °F - 44.6 °F 87% 29.45 in 30.0 mi East 8.1 mph - N/A   Overcast
11:10 AM 48.2 °F - 44.6 °F 87% 29.45 in 20.0 mi East 9.2 mph - N/A Rain Light Rain Showers
12:00 PM 48.2 °F - 44.6 °F 87% 29.43 in 15.0 mi North 4.6 mph - N/A Rain Light Rain Showers
12:32 PM 48.2 °F - 46.4 °F 93% 29.47 in 10.0 mi SW 19.6 mph 26.5 mph N/A Rain Light Rain Showers
1:00 PM 48.2 °F - 44.6 °F 87% 29.48 in 7.0 mi West 10.4 mph 17.3 mph N/A Rain Light Rain Showers
2:00 PM 44.6 °F 39.2 °F 42.8 °F 93% 29.52 in 6.0 mi SW 10.4 mph - N/A Rain Light Rain Showers
3:00 PM 44.6 °F 40.7 °F 42.8 °F 93% 29.54 in 3.0 mi SE 6.9 mph - N/A Rain Light Rain
4:00 PM 44 °F - 43 °F 95% 29.57 in 9 mi East 5.8 mph - - Snow Heavy Snow
4:00 PM 44.6 °F 43.1 °F 42.8 °F 93% 29.56 in 9.0 mi ENE 3.5 mph - N/A Rain Rain
5:00 PM 42.8 °F 38.0 °F 42.8 °F 100% 29.58 in 5.0 mi East 8.1 mph - N/A Rain Light Rain
6:00 PM 42.8 °F 37.5 °F 41.0 °F 93% 29.60 in 5.0 mi SSE 9.2 mph - N/A Rain Light Rain
7:00 PM 44.6 °F 37.4 °F 41.0 °F 87% 29.61 in 3.0 mi South 16.1 mph 24.2 mph N/A Rain Light Rain
7:56 PM 44.6 °F 42.2 °F 41.0 °F 87% 29.61 in 5.0 mi South 4.6 mph - N/A   Overcast
8:00 PM 42.8 °F 41.1 °F 41.0 °F 93% 29.61 in 5.0 mi South 3.5 mph - N/A   Overcast
9:00 PM 42.8 °F 40.1 °F 39.2 °F 87% 29.62 in 10.0 mi ESE 4.6 mph - N/A   Mostly Cloudy
9:47 PM 42.8 °F 40.1 °F 41.0 °F 93% 29.63 in 6.0 mi North 4.6 mph - N/A Rain Light Rain Showers
10:00 PM 42 °F - 41 °F 95% 29.64 in 4 mi North 4.6 mph - - Rain Light Rain Showers
10:00 PM 42.8 °F 40.1 °F 41.0 °F 93% 29.63 in 4.0 mi NNE 4.6 mph - N/A Rain Light Rain Showers
11:00 PM 42.8 °F 40.1 °F 41.0 °F 93% 29.65 in 6.0 mi SSE 4.6 mph - N/A   Mostly Cloudy